Location: The Saddle
(36.8333°N, 80.3417°W)
Time: 16:43:40
(UTC-05:00)

Vanguard 2 Rocket - All Passes

Search period start: 30 January 2023 00:00
Search period end: 09 February 2023 00:00
Orbit: 556 x 3318 km, 32.9° (Epoch: 30 January)

Date Brightness Start Highest point End Pass type
(mag) Time Alt. Az. Time Alt. Az. Time Alt. Az.
30 Jan - 11:27:00 10° SW 11:30:39 27° SSE 11:34:02 10° ESE daylight
30 Jan - 13:39:03 10° WSW 13:42:54 52° S 13:47:45 10° ESE daylight
30 Jan - 15:51:08 10° W 15:55:34 39° SSW 16:02:22 10° SE daylight
30 Jan - 18:04:28 10° WSW 18:09:09 19° SSW 18:15:36 10° SSE visible
31 Jan - 10:27:07 10° SSW 10:30:41 20° SSE 10:33:43 10° ESE daylight
31 Jan - 12:39:10 10° WSW 12:43:00 47° S 12:47:06 10° E daylight
31 Jan - 14:51:25 10° W 14:55:25 44° S 15:01:07 10° ESE daylight
31 Jan - 17:04:06 10° WSW 17:08:31 23° SSW 17:14:50 10° SSE daylight
01 Feb - 09:27:17 10° SSW 09:30:34 15° SSE 09:33:17 10° ESE daylight
01 Feb - 11:39:03 10° WSW 11:43:07 38° S 11:46:49 10° E daylight
01 Feb - 13:51:37 10° W 13:55:26 48° S 14:00:12 10° ESE daylight
01 Feb - 16:04:04 10° WSW 16:08:07 27° SSW 16:13:55 10° SE daylight
01 Feb - 18:21:12 10° SSW 18:21:50 10° SSW 18:22:29 10° SSW visible
02 Feb - 08:27:51 10° S 08:30:15 12° SSE 08:32:19 10° SE daylight
02 Feb - 10:38:42 10° SW 10:43:11 31° SSE 10:46:45 10° ESE daylight
02 Feb - 12:51:39 10° WSW 12:55:32 50° S 12:59:38 10° ESE daylight
02 Feb - 15:04:11 10° WSW 15:07:58 32° SSW 15:13:05 10° SE daylight
02 Feb - 17:18:22 10° SW 17:21:09 13° SSW 17:24:30 10° S daylight
03 Feb - 09:38:10 10° SW 09:43:06 25° SSE 09:46:48 10° ESE daylight
03 Feb - 11:51:22 10° WSW 11:55:38 48° S 11:59:26 10° E daylight
03 Feb - 14:04:16 10° W 14:07:57 38° S 14:12:26 10° ESE daylight
03 Feb - 16:17:34 10° WSW 16:20:43 16° SSW 16:24:41 10° SSE daylight
04 Feb - 08:37:31 10° SSW 08:42:50 21° SSE 08:46:44 10° ESE daylight
04 Feb - 10:50:45 10° WSW 10:55:42 43° S 10:59:30 10° E daylight
04 Feb - 13:04:12 10° W 13:08:02 45° S 13:12:04 10° ESE daylight
04 Feb - 15:17:15 10° WSW 15:20:29 21° SSW 15:24:33 10° SSE daylight
05 Feb - 07:36:58 10° SSW 07:42:21 17° SSE 07:46:22 10° ESE daylight
05 Feb - 09:49:48 10° SW 09:55:38 37° SSE 09:59:42 10° E daylight
05 Feb - 12:03:49 10° WSW 12:08:08 50° S 12:11:58 10° ESE daylight
05 Feb - 14:17:04 10° WSW 14:20:26 26° SSW 14:24:22 10° SE daylight
06 Feb - 06:36:52 10° S 06:41:36 14° SSE 06:45:23 10° SE visible
06 Feb - 08:48:36 10° SW 08:55:24 32° SSE 08:59:54 10° ESE daylight
06 Feb - 11:03:02 10° WSW 11:08:12 52° S 11:12:05 10° E daylight
06 Feb - 13:16:49 10° W 13:20:30 34° SSW 13:24:18 10° SE daylight
06 Feb - 15:31:23 10° SW 15:32:58 12° SSW 15:34:42 10° S daylight
07 Feb - 05:38:23 10° SSE 05:40:34 11° SSE 05:42:33 10° SE visible
07 Feb - 07:47:17 10° SW 07:54:56 28° SSE 07:59:59 10° ESE daylight
07 Feb - 10:01:50 10° WSW 10:08:09 49° S 10:12:22 10° E daylight
07 Feb - 12:16:19 10° W 12:20:37 45° S 12:24:23 10° ESE daylight
07 Feb - 14:30:17 10° WSW 14:32:51 16° SSW 14:35:41 10° SSE daylight
08 Feb - 06:46:00 10° SSW 06:54:13 23° SSE 06:59:47 10° ESE visible
08 Feb - 09:00:16 10° WSW 09:07:55 45° S 09:12:42 10° E daylight
08 Feb - 11:15:26 10° W 11:20:41 53° S 11:24:36 10° ESE daylight
08 Feb - 13:29:37 10° WSW 13:32:53 23° SSW 13:36:11 10° SE daylight
